This is the latest recevied weather packets stored in our database for station/object DL1AIE-13. If no packets are shown the sender has not sent any weather packets the latest 10 day(s).
| Time | Temp. | Humidity | Pressure | Rain* | Wind** | Luminosity | Snow |
|---|---|---|---|---|---|---|---|
| 1777669939 | 12.78° C | 65% | 1024.2 hPa | 0 mm | - | - | - |
| 1777669356 | 12.22° C | 69% | 1024.1 hPa | 0 mm | - | - | - |
| 1777668752 | 12.78° C | 67% | 1024.3 hPa | 0 mm | - | - | - |
| 1777668148 | 12.78° C | 66% | 1024.2 hPa | 0 mm | - | - | - |
| 1777667545 | 12.78° C | 65% | 1024.2 hPa | 0 mm | - | - | - |
| 1777666941 | 14.44° C | 58% | 1024.2 hPa | 0 mm | - | - | - |
| 1777666337 | 14.44° C | 57% | 1024.2 hPa | 0 mm | - | - | - |
| 1777665754 | 14.44° C | 57% | 1024.2 hPa | 0 mm | - | - | - |
| 1777665151 | 14.44° C | 57% | 1024.1 hPa | 0 mm | - | - | - |
| 1777664550 | 15° C | 56% | 1024.1 hPa | 0 mm | - | - | - |
| 1777663943 | 15.56° C | 56% | 1024.1 hPa | 0 mm | - | - | - |
| 1777663339 | 15.56° C | 55% | 1024 hPa | 0 mm | - | - | - |
| 1777662736 | 16.11° C | 53% | 1024 hPa | 0 mm | - | - | - |
| 1777662153 | 16.67° C | 51% | 1024.1 hPa | 0 mm | - | - | - |
| 1777661549 | 17.78° C | 47% | 1024 hPa | 0 mm | - | - | - |
| 1777660946 | 18.89° C | 44% | 1024 hPa | 0 mm | - | - | - |
| 1777660342 | 20° C | 41% | 1023.9 hPa | 0 mm | - | - | - |
| 1777659739 | 20.56° C | 38% | 1023.9 hPa | 0 mm | - | - | - |
| 1777659155 | 21.11° C | 37% | 1023.8 hPa | 0 mm | - | - | - |
| 1777658552 | 21.11° C | 37% | 1023.8 hPa | 0 mm | - | - | - |
| 1777657949 | 21.67° C | 37% | 1023.8 hPa | 0 mm | - | - | - |
| 1777657348 | 21.67° C | 36% | 1023.7 hPa | 0 mm | - | - | - |
| 1777656741 | 21.67° C | 35% | 1023.7 hPa | 0 mm | - | - | - |
| 1777656139 | 22.22° C | 35% | 1023.8 hPa | 0 mm | - | - | - |
| 1777655554 | 22.22° C | 35% | 1023.8 hPa | 0 mm | - | - | - |
* Rain latest hour (hover to see other rain measurements)
** Current wind speed in m/s (hover to see current wind gust speed)